Greenville Downtown, SC

5:02 PM EDT on August 22, 2017 (GMT -0400)
Greenville Downtown

Weather History for KGMU - January, 2014

Change the Weather History Date:

Monday, January 20, 2014

  Actual Average Record
Temperature  
Mean Temperature 50 °F -  
Max Temperature 66 °F 49 °F 73 °F (2017)
Min Temperature 34 °F 32 °F 19 °F (2008)
Degree Days  
Heating Degree Days 15    
Moisture  
Dew Point 23 °F    
Average Humidity 40    
Maximum Humidity 67    
Minimum Humidity 19    
Precipitation  
Precipitation 0.00 in - - ()
Sea Level Pressure  
Sea Level Pressure 29.90 in    
Wind  
Wind Speed 8 mph (WSW)    
Max Wind Speed 16 mph    
Max Gust Speed 24 mph    
Visibility 10 miles    
Events      
Averages and records for this station are not official NWS values.
T = Trace of Precipitation, MM = Missing Value Source: NWS Daily Summary

Daily Weather History Graph

Daily Weather History Graph

Search for Another Location

Airport or City:

Trip Planner

Search our weather history database for the weather conditions in past years. The results will help you decide how hot, cold, wet, or windy it might be!

Date:

Astronomy

Jan. 20, 2014 Rise Set
Actual Time 7:34 AM EST 5:46 PM EST
Civil Twilight 7:07 AM EST 6:13 PM EST
Nautical Twilight 6:36 AM EST 6:44 PM EST
Astronomical Twilight 6:06 AM EST 7:14 PM EST
Moon 10:07 PM EST (1/20) 9:45 AM EST (1/20)
Length of Visible Light 11h 05m
Length of Day
10h 11m
Waning Gibbous, 83% of the Moon is Illuminated
Jan 20
Waning Gibbous
Jan 24
Last Quarter
Jan 30
New
Feb 6
First Quarter
Feb 14
Full

Hourly Weather History & Observations

Time (EST) Temp. Windchill Dew Point Humidity Pressure Visibility Wind Dir Wind Speed Gust Speed Precip Events Conditions
12:53 AM 39.9 °F 33.4 °F 23.0 °F 51% 29.96 in 10.0 mi WSW 10.4 mph - N/A   Clear
1:53 AM 37.0 °F 32.4 °F 23.0 °F 57% 29.95 in 10.0 mi WSW 5.8 mph - N/A   Clear
2:53 AM 36.0 °F 31.1 °F 23.0 °F 59% 29.94 in 10.0 mi West 5.8 mph - N/A   Clear
3:53 AM 34.0 °F 27.2 °F 24.1 °F 67% 29.94 in 10.0 mi West 8.1 mph - N/A   Clear
4:53 AM 34.0 °F 27.2 °F 23.0 °F 64% 29.94 in 10.0 mi West 8.1 mph - N/A   Clear
5:53 AM 34.0 °F 29.8 °F 21.9 °F 61% 29.93 in 10.0 mi West 4.6 mph - N/A   Clear
6:53 AM 34.0 °F 31.0 °F 21.9 °F 61% 29.94 in 10.0 mi West 3.5 mph - N/A   Clear
7:53 AM 34.0 °F 31.0 °F 21.9 °F 61% 29.95 in 10.0 mi WNW 3.5 mph - N/A   Clear
8:53 AM 37.9 °F 35.5 °F 23.0 °F 55% 29.95 in 10.0 mi West 3.5 mph - N/A   Clear
9:53 AM 46.9 °F - 19.9 °F 34% 29.94 in 10.0 mi WSW 13.8 mph - N/A   Clear
10:53 AM 53.1 °F - 19.0 °F 26% 29.94 in 10.0 mi WSW 16.1 mph - N/A   Clear
11:53 AM 57.9 °F - 19.9 °F 23% 29.92 in 10.0 mi WSW 12.7 mph - N/A   Clear
12:53 PM 62.1 °F - 21.0 °F 21% 29.87 in 10.0 mi WSW 16.1 mph - N/A   Clear
1:53 PM 64.9 °F - 21.9 °F 19% 29.84 in 10.0 mi WSW 15.0 mph 24.2 mph N/A   Clear
2:53 PM 64.9 °F - 21.9 °F 19% 29.84 in 10.0 mi WSW 15.0 mph 24.2 mph N/A   Clear
3:53 PM 66.0 °F - 23.0 °F 20% 29.84 in 10.0 mi SSW 11.5 mph 18.4 mph N/A   Clear
4:53 PM 64.0 °F - 23.0 °F 21% 29.85 in 10.0 mi SW 11.5 mph 20.7 mph N/A   Clear
5:53 PM 60.1 °F - 24.1 °F 25% 29.86 in 10.0 mi SSW 8.1 mph - N/A   Clear
6:53 PM 57.0 °F - 25.0 °F 29% 29.86 in 10.0 mi SSW 8.1 mph - N/A   Clear
7:53 PM 55.0 °F - 25.0 °F 31% 29.88 in 10.0 mi SW 6.9 mph - N/A   Clear
8:53 PM 54.0 °F - 25.0 °F 33% 29.87 in 10.0 mi West 4.6 mph - N/A   Clear
9:53 PM 52.0 °F - 26.1 °F 37% 29.86 in 10.0 mi WSW 6.9 mph - N/A   Clear
10:53 PM 51.1 °F - 25.0 °F 36% 29.85 in 10.0 mi Calm Calm - N/A   Clear
11:53 PM 48.9 °F - 25.0 °F 39% 29.83 in 10.0 mi Calm Calm - N/A   Clear